Location: Newark
(49.8969°N, 3.3422°E)
Time: 02:35:36
(UTC+00:00)

deb Explorer IX - Pass Details

Date: 24 January 2020
Orbit: 549 x 1099 km, 38.8° (Epoch: 25 February)

Event Time Altitude Azimuth Distance (km) Brightness Sun altitude
Rises 23:17:14 0° 243° (WSW) 3,854 - -58.2°
Reaches altitude 10° 23:20:13 10° 235° (SW) 2,930 - -58.3°
Maximum altitude 23:26:32 33° 174° (S) 1,745 - -58.6°
Drops below altitude 10° 23:32:47 10° 114° (ESE) 2,889 - -58.8°
Sets 23:35:42 0° 105° (ESE) 3,794 - -58.9°
